Powrót do katalogu

STARLINK-34836

AktywnyŁącznośćSSO
NORAD 65399·PAYLOAD·🇺🇸 United States

Wystrzelony Aug 30, 2025 z Vandenberg Space Force Base

Loading…

Następne Przeloty (najbliższe 24 godziny)

TLE

ŚwieżeSource: CelesTrak SupGP

Epoka: Sep 14, 2026, 15:30 UTC

1 65399C 25191W   26257.64631944  .00004611  00000+0  14311-3 0  2570
2 65399  97.2843 123.7104 0001850  85.5793  90.5516 15.33441764    11

Śledź STARLINK-34836 w czasie rzeczywistym z AllMySat

Download on the App Store